Location: Calmejanne
(44.7523°N, 1.9418°E)
Time: 12:02:46
(UTC+00:00)

COSMOS 2406 - Pass Details

Date: 14 May 2026
Orbit: 846 x 859 km, 71.0° (Epoch: 6 June)

Event Time Altitude Azimuth Distance (km) Brightness Sun altitude
Rises 21:32:42 0° 224° (SW) 3,421 6.2 -19.3°
Reaches altitude 10° 21:35:16 10° 231° (SW) 2,489 5.6 -19.6°
Maximum altitude 21:40:43 44° 303° (WNW) 1,168 4.3 -20.1°
Drops below altitude 10° 21:46:12 10° 15° (NNE) 2,499 6.2 -20.6°
Sets 21:48:48 0° 22° (NNE) 3,438 6.9 -20.8°
